Regional Weather Roundup
Issued by NWS

Home | Current Version | Previous Version | Graphics & Text | Print | Product List | Glossary On
Versions: 1 2 3 4 5 6 7 8 9 10 11 12 13 14 15 16 17 18 19 20 21 22 23 24 25 26 27 28 29 30 31 32 33 34 35 36 37 38 39 40 41 42 43 44 45 46 47 48 49 50
000
ASUS43 KLMK 060702
RWRKY
KENTUCKY REGIONAL WEATHER ROUNDUP
NATIONAL WEATHER SERVICE LOUISVILLE KY
200 AM EST FRI MAR 06 2015

NOTE "FAIR" INDICATES FEW OR NO CLOUDS BELOW 12,000 FEET
WITH NO SIGNIFICANT WEATHER AND/OR OBSTRUCTIONS TO VISIBILITY.

KYZ001>023-026-027-061>063-070>075-060800-
WESTERN AND SOUTH CENTRAL KENTUCKY

CITY           SKY/WX    TMP DP  RH WIND       PRES   REMARKS
PADUCAH        PTCLDY     8   3  80 CALM      30.59F
HENDERSON      PTCLDY     3   3 100 CALM      30.60F
OWENSBORO      PTCLDY     7   2  80 NW5       30.60S WCI  -2
HOPKINSVILLE   PTCLDY     6   2  81 VRB2      30.57S
BOWLING GREEN  PTCLDY    13   4  67 CALM      30.56F
GLASGOW        NOT AVBL
$$

KYZ024-025-028>034-038-045-046-053-060800-
NORTH CENTRAL KENTUCKY

CITY           SKY/WX    TMP DP  RH WIND       PRES   REMARKS
LOUISVILLE/SDF PTCLDY    14   7  73 N5        30.57S WCI   6
LOUISVILLE/LOU PTCLDY    11   6  81 CALM      30.57F
FORT KNOX      PTCLDY     8   3  78 NW6       30.53S WCI  -2
$$

KYZ035>037-039>044-047>052-055>060-089>105-060800-
NORTHEAST KENTUCKY

CITY           SKY/WX    TMP DP  RH WIND       PRES   REMARKS
LEXINGTON      PTCLDY     6   2  83 NE3       30.52R
COVINGTON      PTCLDY     8   3  80 CALM      30.53S
FRANKFORT      PTCLDY    -1  -6  79 N3        30.54R
$$

KYZ054-064>069-076>088-106>120-060800-
SOUTHEAST KENTUCKY

CITY           SKY/WX    TMP DP  RH WIND       PRES   REMARKS
JACKSON        PTCLDY    12   6  77 NE3       30.46F
LONDON         CLEAR      7   1  76 N3        30.48S
SOMERSET       NOT AVBL
MIDDLESBORO    PTCLDY    16  10  77 CALM      30.47S
MONTICELLO     FOG       -7 -11  83 CALM      30.54R VSB<1/4
$$



USA.gov is the U.S. government's official web portal to all federal, state and local government web resources and services.